Valdosta, GA

1:49 PM EST on February 25, 2017 (GMT -0500)
Valdosta Regional

Weather History for KVLD - April, 2014

Change the Weather History Date:

Saturday, April 12, 2014

  Actual Average Record
Temperature  
Mean Temperature 71 °F 65 °F  
Max Temperature 87 °F 78 °F 88 °F (2001)
Min Temperature 55 °F 52 °F 46 °F (1998)
Degree Days  
Heating Degree Days 0 3  
Month to date heating degree days 0 40  
Since 1 July heating degree days 1210 1606  
Cooling Degree Days 6 3  
Month to date cooling degree days 62 25  
Year to date cooling degree days 127 68  
Growing Degree Days 21 (Base 50)    
Moisture  
Dew Point 54 °F    
Average Humidity 58    
Maximum Humidity 86    
Minimum Humidity 30    
Precipitation  
Precipitation 0.00 in 0.11 in 0.61 in (1949)
Month to date precipitation 2.62 1.37  
Year to date precipitation 12.92 14.97  
Sea Level Pressure  
Sea Level Pressure 30.19 in    
Wind  
Wind Speed 4 mph (SSE)    
Max Wind Speed 14 mph    
Max Gust Speed 16 mph    
Visibility 8 miles    
Events      
T = Trace of Precipitation, MM = Missing Value Source: NWS Daily Summary

Daily Weather History Graph

Daily Weather History Graph

Search for Another Location

Airport or City:

Trip Planner

Search our weather history database for the weather conditions in past years. The results will help you decide how hot, cold, wet, or windy it might be!

Date:

Astronomy

Apr. 12, 2014 Rise Set
Actual Time 7:08 AM EDT 7:59 PM EDT
Civil Twilight 6:44 AM EDT 8:23 PM EDT
Nautical Twilight 6:15 AM EDT 8:52 PM EDT
Astronomical Twilight 5:45 AM EDT 9:22 PM EDT
Moon 5:45 PM EDT (4/12) 5:24 AM EDT (4/12)
Length of Visible Light 13h 39m
Length of Day
12h 50m
Waxing Gibbous, 93% of the Moon is Illuminated
Apr 12
Waxing Gibbous
Apr 15
Full
Apr 22
Last Quarter
Apr 29
New
May 6
First Quarter

Hourly Weather History & Observations

Time (EDT) Temp. Heat Index Dew Point Humidity Pressure Visibility Wind Dir Wind Speed Gust Speed Precip Events Conditions
12:53 AM 61.0 °F - 53.1 °F 75% 30.21 in 10.0 mi Calm Calm - N/A   Clear
1:53 AM 57.9 °F - 52.0 °F 81% 30.21 in 10.0 mi Calm Calm - N/A   Clear
2:53 AM 57.0 °F - 52.0 °F 83% 30.20 in 5.0 mi Calm Calm - N/A   Haze
3:53 AM 57.0 °F - 51.1 °F 81% 30.20 in 3.0 mi Calm Calm - N/A   Haze
4:53 AM 57.0 °F - 52.0 °F 83% 30.20 in 4.0 mi Calm Calm - N/A   Haze
5:53 AM 55.9 °F - 51.1 °F 84% 30.20 in 4.0 mi Calm Calm - N/A   Haze
6:53 AM 55.0 °F - 50.0 °F 83% 30.22 in 4.0 mi Calm Calm - N/A   Haze
7:10 AM 55.4 °F - 51.8 °F 88% 30.20 in 2.5 mi Calm Calm - N/A   Mostly Cloudy
7:17 AM 55.4 °F - 51.8 °F 88% 30.20 in 4.0 mi Calm Calm - N/A   Haze
7:53 AM 60.1 °F - 54.0 °F 80% 30.23 in 4.0 mi Calm Calm - N/A   Haze
8:53 AM 66.9 °F - 60.1 °F 79% 30.25 in 9.0 mi SSE 3.5 mph - N/A   Clear
9:53 AM 73.9 °F - 61.0 °F 64% 30.25 in 10.0 mi South 5.8 mph - N/A   Clear
10:53 AM 78.1 °F - 61.0 °F 56% 30.25 in 10.0 mi SSE 6.9 mph - N/A   Partly Cloudy
11:53 AM 79.0 °F - 61.0 °F 54% 30.25 in 10.0 mi South 5.8 mph - N/A   Scattered Clouds
12:53 PM 84.0 °F 83.8 °F 59.0 °F 43% 30.23 in 10.0 mi East 6.9 mph - N/A   Mostly Cloudy
1:53 PM 84.0 °F 82.9 °F 55.0 °F 37% 30.21 in 10.0 mi South 9.2 mph - N/A   Partly Cloudy
2:53 PM 84.9 °F - 52.0 °F 32% 30.19 in 10.0 mi Variable 3.5 mph - N/A   Mostly Cloudy
3:53 PM 86.0 °F 84.0 °F 53.1 °F 32% 30.16 in 10.0 mi Variable 4.6 mph - N/A   Scattered Clouds
4:53 PM 87.1 °F 84.9 °F 53.1 °F 31% 30.14 in 10.0 mi Variable 4.6 mph - N/A   Partly Cloudy
5:53 PM 86.0 °F - 51.1 °F 30% 30.13 in 10.0 mi East 3.5 mph - N/A   Partly Cloudy
6:53 PM 84.0 °F 82.5 °F 53.1 °F 34% 30.13 in 10.0 mi SSE 6.9 mph - N/A   Clear
7:53 PM 80.1 °F 80.1 °F 55.0 °F 42% 30.13 in 10.0 mi SE 3.5 mph - N/A   Clear
8:53 PM 73.0 °F - 55.9 °F 55% 30.14 in 10.0 mi SE 3.5 mph - N/A   Clear
9:53 PM 73.0 °F - 55.0 °F 53% 30.16 in 10.0 mi ESE 6.9 mph - N/A   Clear
10:53 PM 68.0 °F - 55.0 °F 63% 30.17 in 10.0 mi SE 4.6 mph - N/A   Clear
11:53 PM 64.9 °F - 55.0 °F 70% 30.18 in 10.0 mi SSE 4.6 mph - N/A   Clear